Location: Falconara Alta
(43.6167°N, 13.4000°E)
Time: 13:28:06
(UTC+00:00)

Cosmos 2058 - Visible Passes

Search period start: 06 August 2020 00:00
Search period end: 16 August 2020 00:00
Orbit: 561 x 584 km, 82.5° (Epoch: 05 August)

Date Brightness Start Highest point End Pass type
(mag) Time Alt. Az. Time Alt. Az. Time Alt. Az.
10 Aug 6.6 02:38:45 10° NE 02:39:37 11° ENE 02:40:28 10° ENE visible
11 Aug 6.2 02:40:28 10° NE 02:42:37 14° ENE 02:44:46 10° E visible
12 Aug 6.0 02:42:47 10° NNE 02:45:37 17° ENE 02:48:26 10° ESE visible
13 Aug 5.6 02:45:16 10° NNE 02:48:35 22° ENE 02:51:52 10° SE visible
14 Aug 5.1 02:47:53 10° NNE 02:51:32 28° ENE 02:55:10 10° SE visible
15 Aug 4.6 02:50:34 10° N 02:54:28 36° ENE 02:58:21 10° SE visible
